Simultaneous Nadir Overpasses (SNOs) Predictions

Prediction of SNOs between GOES-14 and AQUA Satellite Orbit:

Table of predicted SNOs for the next 14.0 days since TLE Epoch: 8/23/2019
Index Date Time (GOES-14) GOES-14 Lat,Lon AQUA Lat,Lon Distance(km) Time Diff (sec)
1 08/24/2019 20:26:24 -0.38,-104.51 0.05,-102.41 238.19 80
2 08/25/2019 08:47:39 0.38,-104.34 1.09,-107.56 366.07 80
3 08/27/2019 08:35:28 0.37,-104.31 0.44,-104.61 33.65 80
4 08/29/2019 08:20:37 0.37,-104.28 -0.22,-101.66 298.63 80
5 08/29/2019 20:42:00 -0.37,-104.41 -0.90,-106.84 276.68 80
6 08/31/2019 20:32:30 -0.37,-104.39 -0.24,-103.89 56.45 80
7 09/02/2019 20:20:18 -0.37,-104.36 0.35,-100.93 389.96 80
8 09/03/2019 08:41:32 0.37,-104.23 0.77,-106.08 211.15 80
9 09/05/2019 08:26:41 0.36,-104.20 0.11,-103.13 121.82 80
10 09/05/2019 20:48:05 -0.36,-104.30 -1.23,-108.32 457.18 80




NCC Satellite Simultaneous Nadir Overpasses (SNOs) Prediction Service
